Flag for Trinidad and Tobago Weather past 2 weeks in Port of Spain, Trinidad and Tobago

Now
90 °F

Passing clouds.


Feels Like: 95 °F
Forecast: 77 / 86 °F
Wind: 16 mph from Southeast

Location: Piarco International Airport - Trinidad

Current Time: Mar 29, 2015 at 1:30:31 PM

Latest Report: Mar 29, 2015 at 1:00 PM


Visibility: N/A

Pressure: 30.01 "Hg

Humidity: 52%

Dew point: 70 °F

Location of Port of SpainLocation

Historic Weather in Port of Spain — Graph

°F

Port of Spain temperature yesterday

Maximum temperature yesterday: 84 °F (at 3:00 PM)
Minimum temperature yesterday: 73 °F (at 6:00 AM)
Average temperature yesterday: 78 °F

Past Weeks' High & Low Weather Summary

 TemperatureHumidityPressure
High93 °F (Mar 24, 2:00 PM)94% (Mar 17, 2:00 AM)30.27 "Hg (Mar 17, 2:00 AM)
Low72 °F (Mar 21, 2:00 AM)38% (Mar 14, 2:00 PM)29.83 "Hg (Mar 16, 3:00 PM)
Average80 °F75%29.94 "Hg
* Reported Mar 14 12:00 Noon — Mar 29 12:00 Noon, Port of Spain, Weather by CustomWeather, © 2015

Note: Actual official high and low records may vary slightly from our data, if they occured in-between our weather recording intervals... More about our weather records

Advertising

Port of Spain weather history for previous 24 hours

 ConditionsComfort  
Time TempWeatherWind HumidityBarometerVisibility
12:00 PM
Sun, Mar 29
86 °FScattered clouds.18 mph59%30.04 "HgN/A
11:00 AM86 °FScattered clouds.15 mph59%30.04 "HgN/A
10:00 AM84 °FScattered showers. Scattered clouds.16 mph66%30.07 "HgN/A
9:00 AM81 °FPartly sunny.10 mph79%30.07 "HgN/A
8:00 AM77 °FScattered clouds.5 mph89%30.04 "HgN/A
7:00 AM73 °FSprinkles. Broken clouds.No wind94%30.01 "Hg5 mi
6:00 AM73 °FSprinkles. Partly cloudy.6 mph94%29.98 "HgN/A
5:00 AM73 °FSprinkles. Partly cloudy.7 mph94%29.98 "Hg6 mi
4:00 AM73 °FScattered showers. Passing clouds.7 mph94%29.98 "HgN/A
3:00 AM73 °FPassing clouds.No wind94%29.95 "HgN/A
2:00 AM75 °FPassing clouds.No wind89%29.98 "HgN/A
1:00 AM75 °FPassing clouds.No wind89%30.01 "HgN/A
12:00 AM73 °FPassing clouds.No wind89%30.01 "HgN/A
11:00 PM
Sat, Mar 28
75 °FPassing clouds.No wind83%30.01 "HgN/A
10:00 PM75 °FPassing clouds.No wind83%29.95 "HgN/A
9:00 PM75 °FPassing clouds.No wind83%30.01 "HgN/A
8:00 PM77 °FPassing clouds.No wind79%29.98 "HgN/A
7:00 PM79 °FPassing clouds.6 mph74%29.98 "HgN/A
6:00 PM81 °FPassing clouds.12 mph66%29.98 "HgN/A
5:00 PM84 °FPassing clouds.14 mph62%29.95 "HgN/A
4:00 PM82 °FPassing clouds.12 mph66%29.98 "HgN/A
3:00 PM84 °FScattered clouds.16 mph62%29.98 "HgN/A
2:00 PM81 °FScattered showers. Scattered clouds.14 mph79%30.01 "Hg2 mi
Weather by CustomWeather, © 2015

See weather overviewHow to use our weather pages